�������l�o���
Date,Time,MP-1(��Sv/h),MP-2(��Sv/h),MP-3(��Sv/h),MP-4(��Sv/h),MP-5(��Sv/h),MP-6(��Sv/h),MP-7(��Sv/h),MP-8(��Sv/h),����,����(m/s),���J
2017/12/10,00:00,0.882,1.461,0.921,1.732,1.178,0.492,0.876,0.839,���쐼,6.1,��
2017/12/10,00:10,0.879,1.462,0.922,1.734,1.179,0.490,0.874,0.841,���쐼,5.5,��
2017/12/10,00:20,0.883,1.463,0.922,1.734,1.176,0.492,0.874,0.841,���쐼,5.7,��
2017/12/10,00:30,0.883,1.463,0.922,1.734,1.180,0.490,0.874,0.843,���쐼,3.8,��
2017/12/10,00:40,0.881,1.461,0.923,1.733,1.177,0.491,0.874,0.841,���쐼,3.8,��
2017/12/10,00:50,0.881,1.460,0.922,1.732,1.178,0.494,0.876,0.840,���쐼,4.0,��
2017/12/10,01:00,0.882,1.462,0.922,1.734,1.175,0.490,0.874,0.841,���쐼,4.5,��
2017/12/10,01:10,0.881,1.462,0.921,1.733,1.177,0.492,0.876,0.842,���쐼,5.0,��
2017/12/10,01:20,0.883,1.464,0.922,1.733,1.176,0.492,0.875,0.841,���쐼,5.0,��
2017/12/10,01:30,0.881,1.462,0.922,1.734,1.178,0.494,0.875,0.842,���쐼,4.0,��
2017/12/10,01:40,0.882,1.461,0.922,1.734,1.177,0.492,0.876,0.840,��쐼,2.3,��
2017/12/10,01:50,0.882,1.462,0.923,1.734,1.174,0.492,0.874,0.843,�쐼,1.5,��
2017/12/10,02:00,0.883,1.461,0.922,1.735,1.179,0.491,0.875,0.842,��,1.7,��
2017/12/10,02:10,0.883,1.461,0.921,1.732,1.178,0.492,0.875,0.841,���쐼,3.9,��
2017/12/10,02:20,0.882,1.460,0.923,1.736,1.177,0.493,0.876,0.843,���쐼,5.3,��
2017/12/10,02:30,0.884,1.461,0.922,1.733,1.178,0.494,0.875,0.841,���쐼,5.3,��
2017/12/10,02:40,0.882,1.463,0.922,1.735,1.178,0.492,0.875,0.842,���쐼,4.9,��
2017/12/10,02:50,0.881,1.464,0.921,1.735,1.176,0.493,0.876,0.842,���쐼,4.3,��
2017/12/10,03:00,0.880,1.460,0.923,1.733,1.178,0.494,0.875,0.842,���쐼,4.6,��
2017/12/10,03:10,0.883,1.462,0.923,1.734,1.178,0.493,0.875,0.843,���쐼,5.4,��
2017/12/10,03:20,0.884,1.464,0.923,1.735,1.178,0.490,0.875,0.842,���쐼,6.0,��
2017/12/10,03:30,0.884,1.462,0.923,1.734,1.176,0.492,0.877,0.842,���쐼,6.4,��
2017/12/10,03:40,0.883,1.460,0.922,1.732,1.179,0.493,0.876,0.843,���쐼,5.7,��
2017/12/10,03:50,0.883,1.463,0.922,1.735,1.176,0.492,0.876,0.841,���쐼,4.0,��
2017/12/10,04:00,0.884,1.462,0.922,1.731,1.177,0.494,0.875,0.843,���쐼,3.2,��
2017/12/10,04:10,0.882,1.464,0.922,1.735,1.178,0.492,0.877,0.843,���쐼,1.2,��
2017/12/10,04:20,0.885,1.458,0.923,1.734,1.178,0.491,0.874,0.842,��,2.3,��
2017/12/10,04:30,0.884,1.461,0.924,1.735,1.177,0.493,0.876,0.841,���k��,2.9,��
2017/12/10,04:40,0.883,1.464,0.921,1.732,1.176,0.493,0.874,0.843,�k,1.1,��
2017/12/10,04:50,0.884,1.465,0.923,1.732,1.176,0.492,0.875,0.842,���k��,0.6,��
2017/12/10,05:00,0.882,1.461,0.922,1.733,1.178,0.492,0.877,0.842,��,1.2,��
2017/12/10,05:10,0.883,1.461,0.922,1.732,1.180,0.494,0.874,0.842,��,1.7,��
2017/12/10,05:20,0.884,1.461,0.923,1.732,1.177,0.491,0.876,0.842,���쐼,2.9,��
2017/12/10,05:30,0.883,1.460,0.921,1.733,1.178,0.493,0.876,0.841,��,3.4,��
2017/12/10,05:40,0.883,1.460,0.922,1.732,1.179,0.493,0.875,0.841,��,1.2,��
2017/12/10,05:50,0.884,1.462,0.922,1.737,1.179,0.492,0.875,0.842,��쓌,0.6,��
2017/12/10,06:00,0.884,1.460,0.922,1.734,1.177,0.491,0.875,0.842,��쓌,1.1,��
2017/12/10,06:10,0.881,1.458,0.923,1.733,1.178,0.492,0.873,0.844,�쐼,1.2,��
2017/12/10,06:20,0.883,1.462,0.923,1.731,1.178,0.491,0.874,0.841,���쐼,2.9,��
2017/12/10,06:30,0.882,1.456,0.922,1.733,1.176,0.492,0.872,0.840,���쐼,3.7,��
2017/12/10,06:40,0.881,1.463,0.921,1.732,1.178,0.493,0.873,0.841,���쐼,3.7,��
2017/12/10,06:50,0.881,1.461,0.921,1.731,1.179,0.491,0.874,0.839,���쐼,4.1,��
2017/12/10,07:00,0.881,1.461,0.921,1.733,1.177,0.493,0.872,0.841,���쐼,2.6,��
2017/12/10,07:10,0.880,1.462,0.922,1.735,1.178,0.491,0.873,0.841,���쐼,3.3,��
2017/12/10,07:20,0.881,1.461,0.921,1.733,1.178,0.491,0.875,0.840,�쐼,2.6,��
2017/12/10,07:30,0.881,1.462,0.921,1.732,1.180,0.491,0.874,0.841,���쐼,1.7,��
2017/12/10,07:40,0.882,1.460,0.920,1.736,1.179,0.492,0.875,0.840,��,2.6,��
2017/12/10,07:50,0.882,1.460,0.921,1.735,1.177,0.491,0.874,0.841,��,3.3,��
2017/12/10,08:00,0.881,1.463,0.922,1.734,1.175,0.491,0.875,0.841,���k��,3.4,��
2017/12/10,08:10,0.881,1.464,0.923,1.734,1.179,0.491,0.874,0.839,�k��,1.5,��
2017/12/10,08:20,0.884,1.463,0.922,1.736,1.178,0.493,0.876,0.841,�k��,1.9,��
2017/12/10,08:30,0.882,1.462,0.921,1.734,1.180,0.493,0.876,0.842,�k��,2.8,��
2017/12/10,08:40,0.883,1.464,0.923,1.737,1.177,0.493,0.877,0.844,�k�k��,3.6,��
2017/12/10,08:50,0.884,1.468,0.923,1.735,1.178,0.492,0.876,0.842,�k��,3.7,��
2017/12/10,09:00,0.883,1.466,0.923,1.738,1.177,0.493,0.878,0.844,�k,2.8,��
2017/12/10,09:10,0.886,1.466,0.924,1.735,1.179,0.494,0.876,0.843,�k,2.2,��
2017/12/10,09:20,0.884,1.468,0.925,1.738,1.181,0.492,0.877,0.842,�k�k��,2.8,��
2017/12/10,09:30,0.884,1.463,0.924,1.737,1.179,0.494,0.876,0.843,�k,3.1,��
2017/12/10,09:40,0.884,1.463,0.926,1.736,1.180,0.494,0.876,0.843,�k,3.0,��
2017/12/10,09:50,0.886,1.464,0.926,1.735,1.179,0.494,0.875,0.844,�k�k��,2.6,��
2017/12/10,10:00,0.885,1.463,0.923,1.738,1.180,0.493,0.876,0.843,�k,2.9,��
2017/12/10,10:10,0.886,1.463,0.925,1.738,1.179,0.495,0.876,0.844,�k�k��,4.3,��
2017/12/10,10:20,0.887,1.465,0.925,1.737,1.180,0.495,0.875,0.845,�k�k��,4.0,��
2017/12/10,10:30,0.885,1.462,0.926,1.739,1.179,0.494,0.875,0.841,�k,4.3,��
2017/12/10,10:40,0.886,1.466,0.926,1.738,1.184,0.493,0.873,0.841,�k,3.2,��
2017/12/10,10:50,0.887,1.465,0.924,1.739,1.183,0.493,0.874,0.844,�k�k��,3.1,��
2017/12/10,11:00,0.886,1.466,0.924,1.737,1.184,0.495,0.875,0.843,�k��,3.7,��
2017/12/10,11:10,0.888,1.464,0.924,1.737,1.182,0.494,0.876,0.843,�k�k��,4.1,��
2017/12/10,11:20,0.888,1.464,0.924,1.738,1.183,0.494,0.876,0.843,�k�k��,4.0,��
2017/12/10,11:30,0.887,1.466,0.928,1.739,1.180,0.495,0.874,0.844,�k�k��,4.0,��
2017/12/10,11:40,0.887,1.464,0.925,1.740,1.182,0.493,0.878,0.843,�k��,4.0,��
2017/12/10,11:50,0.887,1.465,0.925,1.739,1.183,0.495,0.877,0.844,�k�k��,4.1,��
2017/12/10,12:00,0.889,1.462,0.926,1.740,1.182,0.494,0.877,0.845,�k��,4.2,��
2017/12/10,12:10,0.887,1.464,0.927,1.741,1.184,0.494,0.878,0.843,�k��,3.6,��
2017/12/10,12:20,0.889,1.462,0.924,1.740,1.185,0.494,0.878,0.846,�k��,3.3,��
2017/12/10,12:30,0.888,1.464,0.925,1.740,1.183,0.493,0.880,0.846,�k��,3.2,��
2017/12/10,12:40,0.890,1.464,0.928,1.739,1.183,0.494,0.881,0.845,�k�k��,2.6,��
2017/12/10,12:50,0.890,1.466,0.927,1.741,1.182,0.495,0.878,0.845,�k��,2.9,��
2017/12/10,13:00,0.889,1.463,0.925,1.741,1.185,0.495,0.878,0.845,�k�k��,3.1,��
2017/12/10,13:10,0.889,1.464,0.927,1.741,1.185,0.496,0.878,0.843,�k��,2.5,��
2017/12/10,13:20,0.891,1.464,0.928,1.740,1.185,0.495,0.879,0.841,�k�k��,2.0,��
2017/12/10,13:30,0.889,1.465,0.928,1.741,1.185,0.495,0.878,0.840,�k�k��,2.6,��
2017/12/10,13:40,0.890,1.465,0.928,1.738,1.184,0.495,0.878,0.843,�k�k��,2.6,��
2017/12/10,13:50,0.890,1.467,0.928,1.741,1.183,0.496,0.881,0.842,�k��,2.0,��
2017/12/10,14:00,0.890,1.465,0.928,1.741,1.184,0.496,0.879,0.842,�k�k��,2.6,��
2017/12/10,14:10,0.890,1.464,0.925,1.742,1.184,0.495,0.879,0.841,�k�k��,1.9,��
2017/12/10,14:20,0.889,1.464,0.926,1.739,1.185,0.496,0.880,0.844,�k�k��,2.0,��
2017/12/10,14:30,0.890,1.466,0.928,1.743,1.185,0.495,0.879,0.844,�k��,2.9,��
2017/12/10,14:40,0.889,1.467,0.928,1.744,1.182,0.494,0.879,0.846,�k,3.0,��
2017/12/10,14:50,0.890,1.471,0.926,1.739,1.184,0.496,0.879,0.845,�k�k��,3.0,��
2017/12/10,15:00,0.889,1.469,0.927,1.743,1.185,0.494,0.878,0.844,�k,2.5,��
2017/12/10,15:10,0.891,1.469,0.927,1.741,1.185,0.495,0.880,0.845,�k�k��,3.3,��
2017/12/10,15:20,0.889,1.468,0.925,1.742,1.185,0.495,0.880,0.845,�k�k��,3.0,��
2017/12/10,15:30,0.889,1.470,0.927,1.739,1.186,0.495,0.878,0.846,�k�k��,3.1,��
2017/12/10,15:40,0.892,1.470,0.927,1.739,1.186,0.495,0.878,0.844,�k�k��,3.7,��
2017/12/10,15:50,0.891,1.470,0.926,1.740,1.184,0.496,0.879,0.842,�k�k��,3.0,��
2017/12/10,16:00,0.890,1.468,0.930,1.739,1.184,0.494,0.878,0.845,�k,3.8,��
2017/12/10,16:10,0.890,1.471,0.929,1.740,1.183,0.496,0.879,0.845,�k�k��,3.6,��
2017/12/10,16:20,0.890,1.469,0.928,1.739,1.185,0.494,0.880,0.845,�k,3.4,��
2017/12/10,16:30,0.892,1.469,0.926,1.741,1.184,0.496,0.878,0.843,�k�k��,3.3,��
2017/12/10,16:40,0.891,1.469,0.926,1.741,1.183,0.494,0.876,0.842,�k��,5.0,��
2017/12/10,16:50,0.890,1.468,0.927,1.740,1.182,0.495,0.878,0.844,�k��,6.4,��
2017/12/10,17:00,0.888,1.467,0.927,1.741,1.184,0.495,0.878,0.843,�k��,7.2,��
2017/12/10,17:10,0.888,1.468,0.926,1.741,1.186,0.494,0.876,0.844,�k��,7.6,��
2017/12/10,17:20,0.889,1.466,0.926,1.740,1.184,0.495,0.878,0.845,�k��,6.2,��
2017/12/10,17:30,0.890,1.467,0.927,1.740,1.184,0.495,0.877,0.844,�k�k��,5.7,��
2017/12/10,17:40,0.890,1.469,0.928,1.740,1.184,0.494,0.878,0.844,�k�k��,5.6,��
2017/12/10,17:50,0.890,1.469,0.927,1.742,1.184,0.494,0.879,0.844,�k�k��,6.0,��
2017/12/10,18:00,0.888,1.469,0.927,1.738,1.181,0.493,0.880,0.842,�k�k��,6.1,��
2017/12/10,18:10,0.890,1.468,0.929,1.740,1.183,0.493,0.878,0.844,�k��,6.1,��
2017/12/10,18:20,0.890,1.468,0.927,1.742,1.183,0.494,0.878,0.844,�k�k��,4.7,��
2017/12/10,18:30,0.888,1.468,0.928,1.739,1.185,0.494,0.879,0.844,�k�k��,4.7,��
2017/12/10,18:40,0.889,1.467,0.926,1.739,1.184,0.493,0.879,0.845,�k�k��,5.1,��
2017/12/10,18:50,0.888,1.469,0.926,1.737,1.184,0.494,0.878,0.843,�k��,5.4,��
2017/12/10,19:00,0.889,1.468,0.926,1.742,1.184,0.494,0.877,0.844,�k��,5.4,��
2017/12/10,19:10,0.889,1.469,0.925,1.741,1.183,0.493,0.877,0.844,�k�k��,5.2,��
2017/12/10,19:20,0.888,1.468,0.929,1.740,1.184,0.495,0.878,0.844,�k�k��,4.1,��
2017/12/10,19:30,0.887,1.467,0.927,1.740,1.186,0.493,0.879,0.845,�k,3.8,��
2017/12/10,19:40,0.889,1.468,0.925,1.741,1.182,0.495,0.878,0.844,�k,3.2,��
2017/12/10,19:50,0.889,1.466,0.927,1.739,1.180,0.495,0.879,0.844,�k�k��,3.4,��
2017/12/10,20:00,0.889,1.469,0.927,1.740,1.185,0.495,0.877,0.844,�k�k��,3.0,��
2017/12/10,20:10,0.889,1.467,0.926,1.740,1.188,0.494,0.877,0.844,�k�k��,2.6,��
2017/12/10,20:20,0.887,1.466,0.926,1.740,1.183,0.494,0.878,0.843,�k�k��,2.6,��
2017/12/10,20:30,0.889,1.466,0.926,1.736,1.182,0.494,0.876,0.842,�k��,3.0,��
2017/12/10,20:40,0.889,1.468,0.925,1.737,1.182,0.493,0.876,0.844,�k�k��,2.5,��
2017/12/10,20:50,0.887,1.465,0.924,1.737,1.184,0.493,0.876,0.844,�k��,2.3,��
2017/12/10,21:00,0.891,1.469,0.926,1.740,1.181,0.494,0.877,0.844,�k��,1.5,��
2017/12/10,21:10,0.887,1.467,0.925,1.738,1.182,0.493,0.879,0.843,�k��,1.5,��
2017/12/10,21:20,0.887,1.469,0.926,1.737,1.184,0.495,0.876,0.843,�k�k��,2.0,��
2017/12/10,21:30,0.887,1.468,0.925,1.735,1.185,0.493,0.876,0.843,�k�k��,2.3,��
2017/12/10,21:40,0.886,1.466,0.923,1.737,1.184,0.494,0.877,0.844,�k�k��,2.2,��
2017/12/10,21:50,0.886,1.464,0.924,1.736,1.183,0.495,0.875,0.843,�k�k��,2.2,��
2017/12/10,22:00,0.886,1.464,0.927,1.738,1.183,0.494,0.876,0.844,�k,2.0,��
2017/12/10,22:10,0.889,1.467,0.924,1.738,1.184,0.494,0.878,0.843,�k,2.0,��
2017/12/10,22:20,0.886,1.466,0.925,1.738,1.182,0.496,0.875,0.843,�k��,2.6,��
2017/12/10,22:30,0.886,1.464,0.926,1.737,1.184,0.493,0.876,0.845,�k�k��,2.0,��
2017/12/10,22:40,0.886,1.467,0.924,1.740,1.183,0.493,0.877,0.844,�k��,2.9,��
2017/12/10,22:50,0.886,1.466,0.925,1.738,1.182,0.494,0.876,0.842,�k�k��,1.9,��
2017/12/10,23:00,0.888,1.466,0.925,1.738,1.182,0.494,0.876,0.844,�k��,1.4,��
2017/12/10,23:10,0.889,1.465,0.924,1.738,1.182,0.494,0.876,0.843,�k��,1.2,��
2017/12/10,23:20,0.885,1.467,0.928,1.739,1.178,0.494,0.876,0.842,�k�k��,1.5,��
2017/12/10,23:30,0.889,1.468,0.925,1.737,1.183,0.495,0.877,0.842,�k�k��,1.2,��
2017/12/10,23:40,0.886,1.463,0.925,1.736,1.182,0.494,0.876,0.844,-,CALM,��
2017/12/10,23:50,0.888,1.464,0.925,1.736,1.180,0.493,0.875,0.843,�쓌,0.6,��
